Date_Time,Julian_Date,Latitude,Longitude,Instrument_Depth,U,V,Speed,Direction
(yyyy-mm-dd hh:mn:ss UTC),(JD),(+ deg. North),(+ deg. East),(m),(cm/s),(cm/s),(cm/s),(deg True)
1991-05-04 17:30:00 UTC,2448381.229167,23.8283,-82.1967,0145,76.30,20.87,79.1028,74.7023
1991-05-04 18:00:00 UTC,2448381.250000,23.8283,-82.1967,0145,77.13,19.66,79.5962,75.7001
1991-05-04 18:30:00 UTC,2448381.270833,23.8283,-82.1967,0145,77.04,19.64,79.5040,75.6981
1991-05-04 19:00:00 UTC,2448381.291667,23.8283,-82.1967,0145,76.99,16.79,78.7995,77.6975
1991-05-04 19:30:00 UTC,2448381.312500,23.8283,-82.1967,0145,78.15,15.62,79.6957,78.6971
1991-05-04 20:00:00 UTC,2448381.333333,23.8283,-82.1967,0145,80.35,11.72,81.2002,81.7012
1991-05-04 20:30:00 UTC,2448381.354167,23.8283,-82.1967,0145,79.52,8.78,80.0032,83.6993
1991-05-04 21:00:00 UTC,2448381.375000,23.8283,-82.1967,0145,79.36,11.58,80.2004,81.6981
1991-05-04 21:30:00 UTC,2448381.395833,23.8283,-82.1967,0145,78.17,11.40,78.9969,81.7027
1991-05-04 22:00:00 UTC,2448381.416667,23.8283,-82.1967,0145,79.12,8.73,79.6002,83.7035
1991-05-04 22:30:00 UTC,2448381.437500,23.8283,-82.1967,0145,78.76,7.31,79.0985,84.6974
1991-05-04 23:00:00 UTC,2448381.458333,23.8283,-82.1967,0145,78.13,8.63,78.6052,83.6968
1991-05-04 23:30:00 UTC,2448381.479167,23.8283,-82.1967,0145,77.13,8.52,77.5991,83.6965
1991-05-05 00:00:00 UTC,2448381.500000,23.8283,-82.1967,0145,75.79,12.41,76.7993,80.7008
1991-05-05 00:30:00 UTC,2448381.520833,23.8283,-82.1967,0145,76.64,13.93,77.8957,79.6984
1991-05-05 01:00:00 UTC,2448381.541667,23.8283,-82.1967,0145,73.82,10.77,74.6015,81.6994
1991-05-05 01:30:00 UTC,2448381.562500,23.8283,-82.1967,0145,71.52,9.16,72.1042,82.7015
1991-05-05 02:00:00 UTC,2448381.583333,23.8283,-82.1967,0145,70.50,5.30,70.6989,85.7007
1991-05-05 02:30:00 UTC,2448381.604167,23.8283,-82.1967,0145,69.80,6.48,70.1001,84.6960
1991-05-05 03:00:00 UTC,2448381.625000,23.8283,-82.1967,0145,66.31,4.99,66.4975,85.6964
1991-05-05 03:30:00 UTC,2448381.645833,23.8283,-82.1967,0145,64.97,8.32,65.5006,82.7025
1991-05-05 04:00:00 UTC,2448381.666667,23.8283,-82.1967,0145,62.96,12.58,64.2045,78.7006
1991-05-05 04:30:00 UTC,2448381.687500,23.8283,-82.1967,0145,59.11,15.07,61.0008,75.6972
1991-05-05 05:00:00 UTC,2448381.708333,23.8283,-82.1967,0145,57.76,17.99,60.4968,72.7002
1991-05-05 05:30:00 UTC,2448381.729167,23.8283,-82.1967,0145,57.38,20.10,60.7986,70.6948
1991-05-05 06:00:00 UTC,2448381.750000,23.8283,-82.1967,0145,57.29,20.06,60.7005,70.7024
1991-05-05 06:30:00 UTC,2448381.770833,23.8283,-82.1967,0145,55.75,24.01,60.7004,66.6998
1991-05-05 07:00:00 UTC,2448381.791667,23.8283,-82.1967,0145,59.49,24.40,64.2995,67.6989
1991-05-05 07:30:00 UTC,2448381.812500,23.8283,-82.1967,0145,59.44,23.18,63.7999,68.6955
1991-05-05 08:00:00 UTC,2448381.833333,23.8283,-82.1967,0145,60.59,22.41,64.6015,69.7024
1991-05-05 08:30:00 UTC,2448381.854167,23.8283,-82.1967,0145,58.81,29.07,65.6024,63.6966
1991-05-05 09:00:00 UTC,2448381.875000,23.8283,-82.1967,0145,59.70,26.95,65.5011,65.7045
1991-05-05 09:30:00 UTC,2448381.895833,23.8283,-82.1967,0145,57.58,31.01,65.3994,61.6951
1991-05-05 10:00:00 UTC,2448381.916667,23.8283,-82.1967,0145,60.88,27.49,66.7988,65.6987
1991-05-05 10:30:00 UTC,2448381.937500,23.8283,-82.1967,0145,64.30,26.37,69.4972,67.7010
1991-05-05 11:00:00 UTC,2448381.958333,23.8283,-82.1967,0145,65.03,25.35,69.7963,68.7032
1991-05-05 11:30:00 UTC,2448381.979167,23.8283,-82.1967,0145,70.16,23.20,73.8963,71.7024
1991-05-05 12:00:00 UTC,2448382.000000,23.8283,-82.1967,0145,72.44,19.82,75.1025,74.6980
1991-05-05 12:30:00 UTC,2448382.020833,23.8283,-82.1967,0145,72.08,22.45,75.4952,72.7003
1991-05-05 13:00:00 UTC,2448382.041667,23.8283,-82.1967,0145,72.85,21.30,75.9000,73.7020
1991-05-05 13:30:00 UTC,2448382.062500,23.8283,-82.1967,0145,74.29,21.72,77.4000,73.7028
1991-05-05 14:00:00 UTC,2448382.083333,23.8283,-82.1967,0145,75.43,16.45,77.2029,77.6974
1991-05-05 14:30:00 UTC,2448382.104167,23.8283,-82.1967,0145,77.28,16.85,79.0956,77.6998
1991-05-05 15:00:00 UTC,2448382.125000,23.8283,-82.1967,0145,76.49,15.28,78.0013,78.7030
1991-05-05 15:30:00 UTC,2448382.145833,23.8283,-82.1967,0145,76.49,15.28,78.0013,78.7030
1991-05-05 16:00:00 UTC,2448382.166667,23.8283,-82.1967,0145,77.27,18.27,79.4005,76.6971
1991-05-05 16:30:00 UTC,2448382.187500,23.8283,-82.1967,0145,78.07,17.02,79.9037,77.7014
1991-05-05 17:00:00 UTC,2448382.208333,23.8283,-82.1967,0145,77.96,15.58,79.5016,78.6985
1991-05-05 17:30:00 UTC,2448382.229167,23.8283,-82.1967,0145,77.96,12.77,78.9989,80.6974
1991-05-05 18:00:00 UTC,2448382.250000,23.8283,-82.1967,0145,77.88,11.36,78.7042,81.7010
1991-05-05 18:30:00 UTC,2448382.270833,23.8283,-82.1967,0145,78.27,11.42,79.0987,81.6988
1991-05-05 19:00:00 UTC,2448382.291667,23.8283,-82.1967,0145,78.61,14.29,79.8983,79.6971
1991-05-05 19:30:00 UTC,2448382.312500,23.8283,-82.1967,0145,77.57,9.94,78.2043,82.6978
1991-05-05 20:00:00 UTC,2448382.333333,23.8283,-82.1967,0145,77.86,9.97,78.4957,82.7030
1991-05-05 20:30:00 UTC,2448382.354167,23.8283,-82.1967,0145,77.67,9.95,78.3047,82.6998
1991-05-05 21:00:00 UTC,2448382.375000,23.8283,-82.1967,0145,77.83,8.59,78.3026,83.7018
1991-05-05 21:30:00 UTC,2448382.395833,23.8283,-82.1967,0145,78.76,7.31,79.0985,84.6974
1991-05-05 22:00:00 UTC,2448382.416667,23.8283,-82.1967,0145,78.72,8.69,79.1982,83.7005
1991-05-05 22:30:00 UTC,2448382.437500,23.8283,-82.1967,0145,77.28,5.81,77.4981,85.7005
1991-05-05 23:00:00 UTC,2448382.458333,23.8283,-82.1967,0145,76.47,4.41,76.5971,86.6994
1991-05-05 23:30:00 UTC,2448382.479167,23.8283,-82.1967,0145,75.54,3.03,75.6007,87.7030
1991-05-06 00:00:00 UTC,2448382.500000,23.8283,-82.1967,0145,72.34,2.91,72.3985,87.6964
1991-05-06 00:30:00 UTC,2448382.520833,23.8283,-82.1967,0145,70.88,4.09,70.9979,86.6975
1991-05-06 01:00:00 UTC,2448382.541667,23.8283,-82.1967,0145,69.94,2.81,69.9964,87.6992
1991-05-06 01:30:00 UTC,2448382.562500,23.8283,-82.1967,0145,70.28,4.05,70.3966,86.7019
1991-05-06 02:00:00 UTC,2448382.583333,23.8283,-82.1967,0145,68.89,3.97,69.0043,86.7018
1991-05-06 02:30:00 UTC,2448382.604167,23.8283,-82.1967,0145,66.41,4.99,66.5972,85.7029
1991-05-06 03:00:00 UTC,2448382.625000,23.8283,-82.1967,0145,65.12,4.90,65.3041,85.6968
1991-05-06 03:30:00 UTC,2448382.645833,23.8283,-82.1967,0145,62.03,5.75,62.2959,84.7040
1991-05-06 04:00:00 UTC,2448382.666667,23.8283,-82.1967,0145,63.63,5.90,63.9029,84.7025
1991-05-06 04:30:00 UTC,2448382.687500,23.8283,-82.1967,0145,61.38,10.05,62.1973,80.7012
1991-05-06 05:00:00 UTC,2448382.708333,23.8283,-82.1967,0145,57.86,11.56,59.0035,78.7015
1991-05-06 05:30:00 UTC,2448382.729167,23.8283,-82.1967,0145,57.84,12.61,59.1986,77.7011
1991-05-06 06:00:00 UTC,2448382.750000,23.8283,-82.1967,0145,56.93,13.46,58.4995,76.6978
1991-05-06 06:30:00 UTC,2448382.770833,23.8283,-82.1967,0145,59.29,18.47,62.1003,72.6972
1991-05-06 07:00:00 UTC,2448382.791667,23.8283,-82.1967,0145,60.09,16.44,62.2983,74.6989
1991-05-06 07:30:00 UTC,2448382.812500,23.8283,-82.1967,0145,59.74,20.92,63.2970,70.7005
1991-05-06 08:00:00 UTC,2448382.833333,23.8283,-82.1967,0145,61.68,24.05,66.2029,68.6984
1991-05-06 08:30:00 UTC,2448382.854167,23.8283,-82.1967,0145,62.18,23.00,66.2975,69.7009
1991-05-06 09:00:00 UTC,2448382.875000,23.8283,-82.1967,0145,62.14,24.23,66.6969,68.6979
1991-05-06 09:30:00 UTC,2448382.895833,23.8283,-82.1967,0145,59.88,25.79,65.1977,66.6987
1991-05-06 10:00:00 UTC,2448382.916667,23.8283,-82.1967,0145,61.58,24.01,66.0952,68.6992
1991-05-06 10:30:00 UTC,2448382.937500,23.8283,-82.1967,0145,63.01,25.84,68.1026,67.7018
1991-05-06 11:00:00 UTC,2448382.958333,23.8283,-82.1967,0145,66.71,27.36,72.1027,67.6998
1991-05-06 11:30:00 UTC,2448382.979167,23.8283,-82.1967,0145,71.78,23.74,75.6039,71.6992
1991-05-06 12:00:00 UTC,2448383.000000,23.8283,-82.1967,0145,71.97,23.80,75.8032,71.7013
1991-05-06 12:30:00 UTC,2448383.020833,23.8283,-82.1967,0145,76.09,23.70,79.6955,72.6996
1991-05-06 13:00:00 UTC,2448383.041667,23.8283,-82.1967,0145,76.95,23.97,80.5969,72.6981
1991-05-06 13:30:00 UTC,2448383.062500,23.8283,-82.1967,0145,78.03,22.82,81.2984,73.6983
1991-05-06 14:00:00 UTC,2448383.083333,23.8283,-82.1967,0145,77.65,22.71,80.9028,73.6976
1991-05-06 14:30:00 UTC,2448383.104167,23.8283,-82.1967,0145,79.09,23.13,82.4028,73.6983
1991-05-06 15:00:00 UTC,2448383.125000,23.8283,-82.1967,0145,76.59,22.40,79.7984,73.6976
1991-05-06 15:30:00 UTC,2448383.145833,23.8283,-82.1967,0145,79.22,18.73,81.4041,76.6978
1991-05-06 16:00:00 UTC,2448383.166667,23.8283,-82.1967,0145,81.68,17.81,83.5992,77.6994
1991-05-06 16:30:00 UTC,2448383.187500,23.8283,-82.1967,0145,83.04,15.09,84.3999,79.7006
1991-05-06 17:00:00 UTC,2448383.208333,23.8283,-82.1967,0145,82.45,14.98,83.7998,79.7025
1991-05-06 17:30:00 UTC,2448383.229167,23.8283,-82.1967,0145,79.72,15.93,81.2960,78.6997
1991-05-06 18:00:00 UTC,2448383.250000,23.8283,-82.1967,0145,83.93,15.25,85.3042,79.7018
1991-05-06 18:30:00 UTC,2448383.270833,23.8283,-82.1967,0145,83.93,15.25,85.3042,79.7018
1991-05-06 19:00:00 UTC,2448383.291667,23.8283,-82.1967,0145,84.73,16.93,86.4048,78.7005
1991-05-06 19:30:00 UTC,2448383.312500,23.8283,-82.1967,0145,82.96,16.58,84.6006,78.6980
1991-05-06 20:00:00 UTC,2448383.333333,23.8283,-82.1967,0145,82.35,14.97,83.6996,79.6970
1991-05-06 20:30:00 UTC,2448383.354167,23.8283,-82.1967,0145,79.69,14.48,80.9949,79.7015
1991-05-06 21:00:00 UTC,2448383.375000,23.8283,-82.1967,0145,78.55,12.86,79.5957,80.7022
1991-05-06 21:30:00 UTC,2448383.395833,23.8283,-82.1967,0145,78.57,11.46,79.4014,81.7015
1991-05-06 22:00:00 UTC,2448383.416667,23.8283,-82.1967,0145,78.72,8.69,79.1982,83.7005
1991-05-06 22:30:00 UTC,2448383.437500,23.8283,-82.1967,0145,78.16,7.25,78.4955,84.7005
1991-05-06 23:00:00 UTC,2448383.458333,23.8283,-82.1967,0145,77.53,8.56,78.0011,83.6996
1991-05-06 23:30:00 UTC,2448383.479167,23.8283,-82.1967,0145,76.57,7.10,76.8985,84.7024
1991-05-07 00:00:00 UTC,2448383.500000,23.8283,-82.1967,0145,77.86,9.97,78.4957,82.7030
1991-05-07 00:30:00 UTC,2448383.520833,23.8283,-82.1967,0145,77.07,12.62,78.0964,80.7005
1991-05-07 01:00:00 UTC,2448383.541667,23.8283,-82.1967,0145,76.09,12.46,77.1034,80.7002
1991-05-07 01:30:00 UTC,2448383.562500,23.8283,-82.1967,0145,77.07,12.62,78.0964,80.7005
1991-05-07 02:00:00 UTC,2448383.583333,23.8283,-82.1967,0145,77.67,12.72,78.7047,80.6992
1991-05-07 02:30:00 UTC,2448383.604167,23.8283,-82.1967,0145,78.91,14.34,80.2024,79.7003
1991-05-07 03:00:00 UTC,2448383.625000,23.8283,-82.1967,0145,77.76,12.73,78.7951,80.7026
1991-05-07 03:30:00 UTC,2448383.645833,23.8283,-82.1967,0145,76.55,13.91,77.8035,79.7011
1991-05-07 04:00:00 UTC,2448383.666667,23.8283,-82.1967,0145,76.34,8.43,76.8040,83.6985
1991-05-07 04:30:00 UTC,2448383.687500,23.8283,-82.1967,0145,75.07,13.64,76.2991,79.7019
1991-05-07 05:00:00 UTC,2448383.708333,23.8283,-82.1967,0145,74.58,13.55,75.8009,79.7026
1991-05-07 05:30:00 UTC,2448383.729167,23.8283,-82.1967,0145,74.01,12.12,74.9958,80.6997
1991-05-07 06:00:00 UTC,2448383.750000,23.8283,-82.1967,0145,71.23,12.95,72.3976,79.6959
1991-05-07 06:30:00 UTC,2448383.770833,23.8283,-82.1967,0145,66.73,14.55,68.2978,77.6996
1991-05-07 07:00:00 UTC,2448383.791667,23.8283,-82.1967,0145,64.05,11.64,65.0991,79.6999
1991-05-07 07:30:00 UTC,2448383.812500,23.8283,-82.1967,0145,63.57,16.20,65.6017,75.7032
1991-05-07 08:00:00 UTC,2448383.833333,23.8283,-82.1967,0145,64.43,17.63,66.7985,74.6967
1991-05-07 08:30:00 UTC,2448383.854167,23.8283,-82.1967,0145,66.65,18.23,69.0982,74.7027
1991-05-07 09:00:00 UTC,2448383.875000,23.8283,-82.1967,0145,67.34,15.92,69.1963,76.6988
1991-05-07 09:30:00 UTC,2448383.895833,23.8283,-82.1967,0145,67.33,18.42,69.8042,74.6995
1991-05-07 10:00:00 UTC,2448383.916667,23.8283,-82.1967,0145,70.06,17.86,72.3006,75.6985
1991-05-07 10:30:00 UTC,2448383.937500,23.8283,-82.1967,0145,69.97,16.54,71.8984,76.7002
1991-05-07 11:00:00 UTC,2448383.958333,23.8283,-82.1967,0145,68.51,16.20,70.3993,76.6961
1991-05-07 11:30:00 UTC,2448383.979167,23.8283,-82.1967,0145,69.48,17.71,71.7016,75.7002
1991-05-07 12:00:00 UTC,2448384.000000,23.8283,-82.1967,0145,70.75,22.04,74.1035,72.6972
1991-05-07 12:30:00 UTC,2448384.020833,23.8283,-82.1967,0145,68.80,24.09,72.8956,70.7025
1991-05-07 13:00:00 UTC,2448384.041667,23.8283,-82.1967,0145,74.48,21.78,77.5992,73.6996
1991-05-07 13:30:00 UTC,2448384.062500,23.8283,-82.1967,0145,74.86,21.89,77.9948,73.7004
1991-05-07 14:00:00 UTC,2448384.083333,23.8283,-82.1967,0145,69.12,22.86,72.8022,71.6994
1991-05-07 14:30:00 UTC,2448384.104167,23.8283,-82.1967,0145,71.02,23.49,74.8039,71.6983
1991-05-07 15:00:00 UTC,2448384.125000,23.8283,-82.1967,0145,71.82,25.15,76.0962,70.7007
1991-05-07 15:30:00 UTC,2448384.145833,23.8283,-82.1967,0145,72.18,22.48,75.5996,72.7011
1991-05-07 16:00:00 UTC,2448384.166667,23.8283,-82.1967,0145,72.66,21.25,75.7036,73.6980
1991-05-07 16:30:00 UTC,2448384.187500,23.8283,-82.1967,0145,73.96,24.46,77.8998,71.7000
1991-05-07 17:00:00 UTC,2448384.208333,23.8283,-82.1967,0145,75.24,23.43,78.8037,72.7032
1991-05-07 17:30:00 UTC,2448384.229167,23.8283,-82.1967,0145,74.17,20.29,76.8952,74.7004
1991-05-07 18:00:00 UTC,2448384.250000,23.8283,-82.1967,0145,75.25,22.00,78.4000,73.7032
1991-05-07 18:30:00 UTC,2448384.270833,23.8283,-82.1967,0145,77.26,21.14,80.1000,74.6972
1991-05-07 19:00:00 UTC,2448384.291667,23.8283,-82.1967,0145,74.35,17.58,76.4001,76.6968
1991-05-07 19:30:00 UTC,2448384.312500,23.8283,-82.1967,0145,73.60,20.13,76.3032,74.7034
1991-05-07 20:00:00 UTC,2448384.333333,23.8283,-82.1967,0145,73.98,20.24,76.6987,74.6990
1991-05-07 20:30:00 UTC,2448384.354167,23.8283,-82.1967,0145,73.74,18.80,76.0988,75.6971
1991-05-07 21:00:00 UTC,2448384.375000,23.8283,-82.1967,0145,76.07,19.39,78.5023,75.7000
1991-05-07 21:30:00 UTC,2448384.395833,23.8283,-82.1967,0145,75.72,20.71,78.5011,74.7033
1991-05-07 22:00:00 UTC,2448384.416667,23.8283,-82.1967,0145,75.32,17.81,77.3970,76.6963
1991-05-07 22:30:00 UTC,2448384.437500,23.8283,-82.1967,0145,77.33,19.71,79.8023,75.7008
1991-05-07 23:00:00 UTC,2448384.458333,23.8283,-82.1967,0145,75.92,22.20,79.0992,73.7004
1991-05-07 23:30:00 UTC,2448384.479167,23.8283,-82.1967,0145,73.52,21.50,76.5992,73.6991
1991-05-08 00:00:00 UTC,2448384.500000,23.8283,-82.1967,0145,74.95,20.50,77.7030,74.7028
1991-05-08 00:30:00 UTC,2448384.520833,23.8283,-82.1967,0145,73.26,18.67,75.6016,75.7027
1991-05-08 01:00:00 UTC,2448384.541667,23.8283,-82.1967,0145,70.54,17.98,72.7954,75.7003
1991-05-08 01:30:00 UTC,2448384.562500,23.8283,-82.1967,0145,73.67,16.06,75.4002,77.7020
1991-05-08 02:00:00 UTC,2448384.583333,23.8283,-82.1967,0145,73.94,14.77,75.4008,78.7035
1991-05-08 02:30:00 UTC,2448384.604167,23.8283,-82.1967,0145,73.18,17.30,75.1971,76.6993
1991-05-08 03:00:00 UTC,2448384.625000,23.8283,-82.1967,0145,74.42,18.97,76.7997,75.6996
1991-05-08 03:30:00 UTC,2448384.645833,23.8283,-82.1967,0145,74.81,19.07,77.2023,75.6992
1991-05-08 04:00:00 UTC,2448384.666667,23.8283,-82.1967,0145,75.23,17.78,77.3025,76.7026
1991-05-08 04:30:00 UTC,2448384.687500,23.8283,-82.1967,0145,73.11,20.00,75.7963,74.7005
1991-05-08 05:00:00 UTC,2448384.708333,23.8283,-82.1967,0145,77.57,25.65,81.7008,71.7025
1991-05-08 05:30:00 UTC,2448384.729167,23.8283,-82.1967,0145,77.49,27.14,82.1053,70.6978
1991-05-08 06:00:00 UTC,2448384.750000,23.8283,-82.1967,0145,77.09,28.52,82.1965,69.6977
1991-05-08 06:30:00 UTC,2448384.770833,23.8283,-82.1967,0145,78.42,25.94,82.5989,71.6967
1991-05-08 07:00:00 UTC,2448384.791667,23.8283,-82.1967,0145,78.77,24.53,82.5011,72.7027
1991-05-08 07:30:00 UTC,2448384.812500,23.8283,-82.1967,0145,78.51,22.96,81.7984,73.6986
1991-05-08 08:00:00 UTC,2448384.833333,23.8283,-82.1967,0145,79.67,21.80,82.5987,74.6968
1991-05-08 08:30:00 UTC,2448384.854167,23.8283,-82.1967,0145,80.22,17.49,82.1045,77.7005
1991-05-08 09:00:00 UTC,2448384.875000,23.8283,-82.1967,0145,76.59,20.95,79.4036,74.7018
1991-05-08 09:30:00 UTC,2448384.895833,23.8283,-82.1967,0145,77.96,15.58,79.5016,78.6985
1991-05-08 10:00:00 UTC,2448384.916667,23.8283,-82.1967,0145,78.55,15.70,80.1036,78.6971
1991-05-08 10:30:00 UTC,2448384.937500,23.8283,-82.1967,0145,77.57,15.50,79.1034,78.7000
1991-05-08 11:00:00 UTC,2448384.958333,23.8283,-82.1967,0145,75.92,16.55,77.7029,77.7023
1991-05-08 11:30:00 UTC,2448384.979167,23.8283,-82.1967,0145,75.37,13.70,76.6050,79.6978
1991-05-08 12:00:00 UTC,2448385.000000,23.8283,-82.1967,0145,72.57,14.50,74.0044,78.7007
1991-05-08 12:30:00 UTC,2448385.020833,23.8283,-82.1967,0145,69.29,16.38,71.1998,76.6996
1991-05-08 13:00:00 UTC,2448385.041667,23.8283,-82.1967,0145,68.41,17.44,70.5980,75.6980
1991-05-08 13:30:00 UTC,2448385.062500,23.8283,-82.1967,0145,66.18,15.64,68.0030,76.7035
1991-05-08 14:00:00 UTC,2448385.083333,23.8283,-82.1967,0145,67.65,8.67,68.2033,82.6968
1991-05-08 14:30:00 UTC,2448385.104167,23.8283,-82.1967,0145,64.13,15.16,65.8975,76.6997
1991-05-08 15:00:00 UTC,2448385.125000,23.8283,-82.1967,0145,61.44,16.81,63.6981,74.6983
1991-05-08 15:30:00 UTC,2448385.145833,23.8283,-82.1967,0145,58.24,18.14,60.9996,72.6998
1991-05-08 16:00:00 UTC,2448385.166667,23.8283,-82.1967,0145,58.81,18.32,61.5974,72.6976
1991-05-08 16:30:00 UTC,2448385.187500,23.8283,-82.1967,0145,57.95,20.29,61.3994,70.7033
1991-05-08 17:00:00 UTC,2448385.208333,23.8283,-82.1967,0145,56.81,23.30,61.4025,67.6995
1991-05-08 17:30:00 UTC,2448385.229167,23.8283,-82.1967,0145,60.80,26.19,66.2009,66.6957
1991-05-08 18:00:00 UTC,2448385.250000,23.8283,-82.1967,0145,65.97,23.10,69.8974,70.7018
1991-05-08 18:30:00 UTC,2448385.270833,23.8283,-82.1967,0145,65.97,20.55,69.0966,72.6979
1991-05-08 19:00:00 UTC,2448385.291667,23.8283,-82.1967,0145,62.52,24.37,67.1018,68.7044
1991-05-08 19:30:00 UTC,2448385.312500,23.8283,-82.1967,0145,61.26,26.38,66.6985,66.7021
1991-05-08 20:00:00 UTC,2448385.333333,23.8283,-82.1967,0145,63.03,23.31,67.2022,69.7044
1991-05-08 20:30:00 UTC,2448385.354167,23.8283,-82.1967,0145,63.40,23.45,67.5978,69.7019
1991-05-08 21:00:00 UTC,2448385.375000,23.8283,-82.1967,0145,67.22,20.94,70.4061,72.6974
1991-05-08 21:30:00 UTC,2448385.395833,23.8283,-82.1967,0145,66.13,19.34,68.9000,73.6982
1991-05-08 22:00:00 UTC,2448385.416667,23.8283,-82.1967,0145,64.50,18.86,67.2008,73.7009
1991-05-08 22:30:00 UTC,2448385.437500,23.8283,-82.1967,0145,60.28,17.63,62.8052,73.6975
1991-05-08 23:00:00 UTC,2448385.458333,23.8283,-82.1967,0145,60.09,16.44,62.2983,74.6989
1991-05-08 23:30:00 UTC,2448385.479167,23.8283,-82.1967,0145,57.46,14.65,59.2982,75.6966
1991-05-09 00:00:00 UTC,2448385.500000,23.8283,-82.1967,0145,60.56,15.44,62.4973,75.6969
1991-05-09 00:30:00 UTC,2448385.520833,23.8283,-82.1967,0145,60.77,16.62,63.0017,74.7042
1991-05-09 01:00:00 UTC,2448385.541667,23.8283,-82.1967,0145,62.79,16.01,64.7990,75.6957
1991-05-09 01:30:00 UTC,2448385.562500,23.8283,-82.1967,0145,63.97,19.92,66.9998,72.7036
1991-05-09 02:00:00 UTC,2448385.583333,23.8283,-82.1967,0145,64.01,24.96,68.7043,68.6973
1991-05-09 02:30:00 UTC,2448385.604167,23.8283,-82.1967,0145,64.11,27.61,69.8026,66.7001
1991-05-09 03:00:00 UTC,2448385.625000,23.8283,-82.1967,0145,59.45,30.68,66.8997,62.7034
1991-05-09 03:30:00 UTC,2448385.645833,23.8283,-82.1967,0145,61.40,31.69,69.0957,62.7007
1991-05-09 04:00:00 UTC,2448385.666667,23.8283,-82.1967,0145,63.38,31.33,70.7007,63.6959
1991-05-09 04:30:00 UTC,2448385.687500,23.8283,-82.1967,0145,64.60,33.34,72.6960,62.7018
1991-05-09 05:00:00 UTC,2448385.708333,23.8283,-82.1967,0145,70.26,30.26,76.4993,66.6991
1991-05-09 05:30:00 UTC,2448385.729167,23.8283,-82.1967,0145,70.09,31.65,76.9047,65.6979
1991-05-09 06:00:00 UTC,2448385.750000,23.8283,-82.1967,0145,69.07,32.65,76.3982,64.6995
1991-05-09 06:30:00 UTC,2448385.770833,23.8283,-82.1967,0145,68.59,36.93,77.9000,61.7012
1991-05-09 07:00:00 UTC,2448385.791667,23.8283,-82.1967,0145,66.39,35.75,75.4035,61.6982
1991-05-09 07:30:00 UTC,2448385.812500,23.8283,-82.1967,0145,68.63,30.99,75.3024,65.6984
1991-05-09 08:00:00 UTC,2448385.833333,23.8283,-82.1967,0145,71.61,29.37,77.3989,67.6996
1991-05-09 08:30:00 UTC,2448385.854167,23.8283,-82.1967,0145,72.77,28.37,78.1046,68.7012
1991-05-09 09:00:00 UTC,2448385.875000,23.8283,-82.1967,0145,73.53,27.20,78.3996,69.6997
1991-05-09 09:30:00 UTC,2448385.895833,23.8283,-82.1967,0145,72.58,25.42,76.9027,70.6980
1991-05-09 10:00:00 UTC,2448385.916667,23.8283,-82.1967,0145,67.63,27.74,73.0980,67.6979
1991-05-09 10:30:00 UTC,2448385.937500,23.8283,-82.1967,0145,62.89,24.52,67.5010,68.6998
1991-05-09 11:00:00 UTC,2448385.958333,23.8283,-82.1967,0145,63.19,25.92,68.2995,67.6970
1991-05-09 11:30:00 UTC,2448385.979167,23.8283,-82.1967,0145,63.47,26.03,68.6003,67.7007
1991-05-09 12:00:00 UTC,2448386.000000,23.8283,-82.1967,0145,66.21,24.49,70.5941,69.7014
1991-05-09 12:30:00 UTC,2448386.020833,23.8283,-82.1967,0145,67.22,22.23,70.8004,71.7007
1991-05-09 13:00:00 UTC,2448386.041667,23.8283,-82.1967,0145,68.24,23.90,72.3043,70.6980
1991-05-09 13:30:00 UTC,2448386.062500,23.8283,-82.1967,0145,63.08,24.59,67.7034,68.7030
1991-05-09 14:00:00 UTC,2448386.083333,23.8283,-82.1967,0145,64.12,26.30,69.3041,67.6981
1991-05-09 14:30:00 UTC,2448386.104167,23.8283,-82.1967,0145,66.82,23.40,70.7988,70.7000
1991-05-09 15:00:00 UTC,2448386.125000,23.8283,-82.1967,0145,66.07,20.58,69.2010,72.6988
1991-05-09 15:30:00 UTC,2448386.145833,23.8283,-82.1967,0145,64.05,17.52,66.4030,74.7017
1991-05-09 16:00:00 UTC,2448386.166667,23.8283,-82.1967,0145,66.58,13.30,67.8954,78.7033
1991-05-09 16:30:00 UTC,2448386.187500,23.8283,-82.1967,0145,66.98,13.38,68.3033,78.7032
1991-05-09 17:00:00 UTC,2448386.208333,23.8283,-82.1967,0145,69.09,17.61,71.2990,75.7006
1991-05-09 17:30:00 UTC,2448386.229167,23.8283,-82.1967,0145,71.53,13.00,72.7017,79.6994
1991-05-09 18:00:00 UTC,2448386.250000,23.8283,-82.1967,0145,69.77,11.43,70.7001,80.6962
1991-05-09 18:30:00 UTC,2448386.270833,23.8283,-82.1967,0145,67.10,12.19,68.1983,79.7034
1991-05-09 19:00:00 UTC,2448386.291667,23.8283,-82.1967,0145,62.70,17.15,65.0032,74.7024
1991-05-09 19:30:00 UTC,2448386.312500,23.8283,-82.1967,0145,63.83,18.66,66.5016,73.7043
1991-05-09 20:00:00 UTC,2448386.333333,23.8283,-82.1967,0145,57.95,14.77,59.8026,75.7012
1991-05-09 20:30:00 UTC,2448386.354167,23.8283,-82.1967,0145,59.51,16.28,61.6967,74.7001
1991-05-09 21:00:00 UTC,2448386.375000,23.8283,-82.1967,0145,63.61,13.87,65.1046,77.6993
1991-05-09 21:30:00 UTC,2448386.395833,23.8283,-82.1967,0145,66.67,16.99,68.8008,75.7032
1991-05-09 22:00:00 UTC,2448386.416667,23.8283,-82.1967,0145,66.29,13.25,67.6012,78.6967
1991-05-09 22:30:00 UTC,2448386.437500,23.8283,-82.1967,0145,66.81,12.14,67.9040,79.7012
1991-05-09 23:00:00 UTC,2448386.458333,23.8283,-82.1967,0145,61.92,15.78,63.8991,75.7028
1991-05-09 23:30:00 UTC,2448386.479167,23.8283,-82.1967,0145,59.03,17.26,61.5016,73.7014
1991-05-10 00:00:00 UTC,2448386.500000,23.8283,-82.1967,0145,61.24,15.61,63.1982,75.6999
1991-05-10 00:30:00 UTC,2448386.520833,23.8283,-82.1967,0145,60.48,16.54,62.7009,74.7048
1991-05-10 01:00:00 UTC,2448386.541667,23.8283,-82.1967,0145,56.40,18.65,59.4036,71.7023
1991-05-10 01:30:00 UTC,2448386.562500,23.8283,-82.1967,0145,53.74,17.77,56.6018,71.7027
1991-05-10 02:00:00 UTC,2448386.583333,23.8283,-82.1967,0145,59.69,15.22,61.5999,75.6953
1991-05-10 02:30:00 UTC,2448386.604167,23.8283,-82.1967,0145,59.79,15.24,61.7017,75.7002
1991-05-10 03:00:00 UTC,2448386.625000,23.8283,-82.1967,0145,55.86,16.33,58.1980,73.7043
1991-05-10 03:30:00 UTC,2448386.645833,23.8283,-82.1967,0145,57.48,17.90,60.2027,72.7028
1991-05-10 04:00:00 UTC,2448386.666667,23.8283,-82.1967,0145,59.03,24.21,63.8018,67.7000
1991-05-10 04:30:00 UTC,2448386.687500,23.8283,-82.1967,0145,57.51,25.97,63.1018,65.6973
1991-05-10 05:00:00 UTC,2448386.708333,23.8283,-82.1967,0145,58.04,27.44,64.1996,64.6963
1991-05-10 05:30:00 UTC,2448386.729167,23.8283,-82.1967,0145,55.63,28.71,62.6016,62.7023
1991-05-10 06:00:00 UTC,2448386.750000,23.8283,-82.1967,0145,56.75,28.05,63.3038,63.6980
1991-05-10 06:30:00 UTC,2448386.770833,23.8283,-82.1967,0145,59.27,30.59,66.6984,62.7012
1991-05-10 07:00:00 UTC,2448386.791667,23.8283,-82.1967,0145,59.34,31.95,67.3946,61.7010